TimeAKDT,TemperatureF,Dew PointF,Humidity,Sea Level PressureIn,VisibilityMPH,Wind Direction,Wind SpeedMPH,Gust SpeedMPH,PrecipitationIn,Events,Conditions,WindDirDegrees,DateUTC
12:16 AM,53.6,48.2,82,30.14,10.0,Calm,Calm,-,N/A,,Unknown,0,2013-06-29 08:16:00
12:36 AM,53.6,46.4,77,30.14,10.0,Calm,Calm,-,N/A,,Unknown,0,2013-06-29 08:36:00
12:56 AM,53.6,46.4,77,30.14,10.0,Calm,Calm,-,N/A,,Unknown,0,2013-06-29 08:56:00
1:16 AM,53.6,46.4,77,30.14,10.0,Calm,Calm,-,N/A,,Unknown,0,2013-06-29 09:16:00
1:36 AM,53.6,46.4,77,30.14,10.0,Calm,Calm,-,N/A,,Unknown,0,2013-06-29 09:36:00
1:56 AM,53.6,48.2,82,30.14,10.0,Calm,Calm,-,N/A,,Unknown,0,2013-06-29 09:56:00
2:16 AM,53.6,46.4,77,30.14,10.0,Calm,Calm,-,N/A,,Unknown,0,2013-06-29 10:16:00
2:36 AM,51.8,46.4,82,30.13,10.0,Calm,Calm,-,N/A,,Unknown,0,2013-06-29 10:36:00
2:56 AM,53.6,48.2,82,30.13,10.0,Calm,Calm,-,N/A,,Unknown,0,2013-06-29 10:56:00
3:16 AM,51.8,48.2,88,30.12,10.0,Calm,Calm,-,N/A,,Unknown,0,2013-06-29 11:16:00
3:36 AM,51.8,46.4,82,30.12,10.0,Calm,Calm,-,N/A,,Unknown,0,2013-06-29 11:36:00
3:56 AM,51.8,46.4,82,30.12,10.0,Calm,Calm,-,N/A,,Unknown,0,2013-06-29 11:56:00
4:16 AM,51.8,48.2,88,30.12,10.0,Calm,Calm,-,N/A,,Unknown,0,2013-06-29 12:16:00
4:36 AM,51.8,48.2,88,30.11,10.0,Calm,Calm,-,N/A,,Unknown,0,2013-06-29 12:36:00
4:56 AM,51.8,48.2,88,30.11,10.0,Calm,Calm,-,N/A,,Unknown,0,2013-06-29 12:56:00
5:16 AM,51.8,48.2,88,30.10,10.0,Calm,Calm,-,N/A,,Unknown,0,2013-06-29 13:16:00
5:36 AM,51.8,48.2,88,30.09,10.0,Calm,Calm,-,N/A,,Unknown,0,2013-06-29 13:36:00
5:56 AM,51.8,48.2,88,30.10,10.0,NE,4.6,-,N/A,,Unknown,40,2013-06-29 13:56:00
6:16 AM,51.8,48.2,88,30.09,10.0,Calm,Calm,-,N/A,,Unknown,0,2013-06-29 14:16:00
6:36 AM,53.6,48.2,82,30.09,10.0,Calm,Calm,-,N/A,,Unknown,0,2013-06-29 14:36:00
6:56 AM,51.8,48.2,88,30.09,10.0,Calm,Calm,-,N/A,,Unknown,0,2013-06-29 14:56:00
7:16 AM,51.8,48.2,88,30.09,10.0,Calm,Calm,-,N/A,,Unknown,0,2013-06-29 15:16:00
7:36 AM,51.8,48.2,88,30.09,10.0,Calm,Calm,-,N/A,,Unknown,0,2013-06-29 15:36:00
7:56 AM,53.6,48.2,82,30.09,10.0,Calm,Calm,-,N/A,,Unknown,0,2013-06-29 15:56:00
8:16 AM,53.6,48.2,82,30.08,10.0,Calm,Calm,-,N/A,,Unknown,0,2013-06-29 16:16:00
8:36 AM,55.4,46.4,72,30.08,10.0,Calm,Calm,-,N/A,,Unknown,0,2013-06-29 16:36:00
8:56 AM,55.4,46.4,72,30.08,10.0,West,4.6,-,N/A,,Unknown,270,2013-06-29 16:56:00
9:16 AM,55.4,48.2,77,30.07,10.0,WNW,3.5,-,N/A,,Unknown,290,2013-06-29 17:16:00
9:36 AM,55.4,48.2,77,30.07,10.0,NNW,3.5,-,N/A,,Unknown,330,2013-06-29 17:36:00
9:56 AM,55.4,46.4,72,30.07,10.0,NNW,4.6,-,N/A,,Unknown,330,2013-06-29 17:56:00
10:16 AM,57.2,48.2,72,30.07,10.0,NNW,5.8,-,N/A,,Unknown,330,2013-06-29 18:16:00
10:36 AM,57.2,48.2,72,30.06,10.0,NW,4.6,-,N/A,,Unknown,320,2013-06-29 18:36:00
10:56 AM,57.2,48.2,72,30.06,10.0,West,3.5,-,N/A,,Unknown,270,2013-06-29 18:56:00
11:16 AM,59.0,48.2,67,30.06,10.0,NW,5.8,-,N/A,,Unknown,310,2013-06-29 19:16:00
11:36 AM,60.8,48.2,63,30.05,10.0,NW,6.9,-,N/A,,Unknown,320,2013-06-29 19:36:00
11:56 AM,60.8,48.2,63,30.06,10.0,NW,8.1,-,N/A,,Unknown,310,2013-06-29 19:56:00
12:16 PM,60.8,48.2,63,30.05,10.0,West,9.2,-,N/A,,Unknown,280,2013-06-29 20:16:00
12:36 PM,60.8,48.2,63,30.05,10.0,WNW,5.8,-,N/A,,Unknown,300,2013-06-29 20:36:00
12:56 PM,60.8,48.2,63,30.05,10.0,West,5.8,-,N/A,,Unknown,270,2013-06-29 20:56:00
1:16 PM,60.8,48.2,63,30.04,10.0,West,5.8,-,N/A,,Unknown,280,2013-06-29 21:16:00
1:36 PM,62.6,48.2,59,30.04,10.0,West,3.5,-,N/A,,Unknown,280,2013-06-29 21:36:00
1:56 PM,62.6,48.2,59,30.03,10.0,West,8.1,-,N/A,,Unknown,280,2013-06-29 21:56:00
2:16 PM,62.6,48.2,59,30.03,10.0,WNW,9.2,-,N/A,,Unknown,300,2013-06-29 22:16:00
2:36 PM,62.6,50.0,63,30.03,10.0,West,6.9,-,N/A,,Unknown,280,2013-06-29 22:36:00
2:56 PM,62.6,50.0,63,30.03,10.0,West,6.9,-,N/A,,Unknown,270,2013-06-29 22:56:00
3:16 PM,62.6,50.0,63,30.03,10.0,West,5.8,-,N/A,,Unknown,270,2013-06-29 23:16:00
3:36 PM,64.4,51.8,64,30.02,10.0,West,6.9,-,N/A,,Unknown,260,2013-06-29 23:36:00
3:56 PM,64.4,51.8,64,30.02,10.0,West,8.1,-,N/A,,Unknown,260,2013-06-29 23:56:00
4:16 PM,62.6,51.8,68,30.02,10.0,West,10.4,-,N/A,,Unknown,270,2013-06-30 00:16:00
4:36 PM,62.6,51.8,68,30.02,10.0,West,8.1,-,N/A,,Unknown,270,2013-06-30 00:36:00
4:56 PM,62.6,51.8,68,30.01,10.0,West,8.1,-,N/A,,Unknown,270,2013-06-30 00:56:00
5:16 PM,64.4,51.8,64,30.01,10.0,WNW,4.6,-,N/A,,Unknown,290,2013-06-30 01:16:00
5:36 PM,66.2,51.8,60,30.01,10.0,WNW,9.2,-,N/A,,Unknown,290,2013-06-30 01:36:00
5:56 PM,64.4,51.8,64,30.00,10.0,West,9.2,-,N/A,,Unknown,270,2013-06-30 01:56:00
6:16 PM,64.4,51.8,64,30.00,10.0,WNW,8.1,-,N/A,,Unknown,290,2013-06-30 02:16:00
6:36 PM,62.6,51.8,68,30.00,10.0,West,9.2,-,N/A,,Unknown,270,2013-06-30 02:36:00
6:56 PM,62.6,51.8,68,30.00,10.0,West,8.1,-,N/A,,Unknown,270,2013-06-30 02:56:00
7:16 PM,62.6,51.8,68,30.00,10.0,West,8.1,-,N/A,,Unknown,270,2013-06-30 03:16:00
7:36 PM,64.4,51.8,64,30.00,10.0,West,9.2,-,N/A,,Unknown,270,2013-06-30 03:36:00
7:56 PM,62.6,50.0,63,30.00,10.0,NW,8.1,-,N/A,,Unknown,310,2013-06-30 03:56:00
8:16 PM,60.8,48.2,63,30.00,10.0,WNW,11.5,-,N/A,,Unknown,290,2013-06-30 04:16:00
8:36 PM,59.0,48.2,67,30.00,10.0,WNW,11.5,-,N/A,,Unknown,290,2013-06-30 04:36:00
8:56 PM,57.2,48.2,72,30.00,10.0,West,9.2,-,N/A,,Unknown,280,2013-06-30 04:56:00
9:16 PM,57.2,48.2,72,30.01,10.0,WNW,9.2,-,N/A,,Unknown,290,2013-06-30 05:16:00
9:36 PM,57.2,46.4,67,30.01,10.0,West,8.1,-,N/A,,Unknown,260,2013-06-30 05:36:00
9:56 PM,55.4,46.4,72,30.01,10.0,WSW,11.5,-,N/A,,Unknown,240,2013-06-30 05:56:00
10:16 PM,55.4,44.6,67,30.02,10.0,WSW,9.2,-,N/A,,Unknown,250,2013-06-30 06:16:00
10:36 PM,55.4,46.4,72,30.02,10.0,West,6.9,-,N/A,,Unknown,260,2013-06-30 06:36:00
10:56 PM,53.6,46.4,77,30.02,10.0,West,6.9,-,N/A,,Unknown,270,2013-06-30 06:56:00
11:16 PM,53.6,46.4,77,30.02,10.0,West,3.5,-,N/A,,Unknown,260,2013-06-30 07:16:00
11:36 PM,53.6,46.4,77,30.02,10.0,SW,3.5,-,N/A,,Unknown,230,2013-06-30 07:36:00
11:56 PM,53.6,46.4,77,30.03,10.0,WSW,4.6,-,N/A,,Unknown,250,2013-06-30 07:56:00